Flag for Cuba Weather past 2 weeks in Camagüey, Cuba

Now
75 °F

Clear.


Feels Like: 75 °F
Forecast: 73 / 89 °F
Wind: 3 mph from East

Location: Camaguey Aeropuerto

Current Time: Oct 22, 2014 at 6:33:20 AM

Latest Report: Oct 22, 2014 at 5:51 AM


Visibility: 6 mi

Pressure: 29.92 "Hg

Humidity: 89%

Dew point: 72 °F

Location of CamagüeyLocation

Historic Weather in Camagüey — Graph

°F

Camagüey temperature yesterday

Maximum temperature yesterday: 90 °F (at 1:50 PM)
Minimum temperature yesterday: 72 °F (at 6:50 AM)
Average temperature yesterday: 79 °F

Past Weeks' High & Low Weather Summary

 TemperatureHumidityPressure
High91 °F (Oct 7, 1:50 PM)94% (Oct 7, 6:50 AM)30.07 "Hg (Oct 7, 6:50 AM)
Low70 °F (Oct 20, 6:51 AM)36% (Oct 7, 1:50 PM)29.86 "Hg (Oct 10, 2:50 PM)
Average79 °F75%29.97 "Hg
* Reported Oct 7 4:50 AM — Oct 22 4:51 AM, Camagüey, Weather by CustomWeather, © 2014

Note: Actual official high and low records may vary slightly from our data, if they occured in-between our weather recording intervals... More about our weather records

Advertising

Camagüey weather history for previous 24 hours

 ConditionsComfort  
Time TempWeatherWind HumidityBarometerVisibility
4:51 AM
Oct 22
75 °FPassing clouds.5 mph89%29.92 "Hg6 mi
3:53 AM75 °FPassing clouds.5 mph94%29.92 "Hg6 mi
2:50 AM75 °FPassing clouds.5 mph94%29.92 "Hg6 mi
1:53 AM75 °FPassing clouds.6 mph89%29.95 "Hg6 mi
12:50 AM77 °FPassing clouds.5 mph89%29.95 "Hg6 mi
11:50 PM
Oct 21
75 °FPassing clouds.3 mph89%29.98 "Hg6 mi
10:51 PM77 °FPartly cloudy.2 mph89%29.98 "Hg6 mi
9:51 PM75 °FPartly cloudy.6 mph83%29.98 "Hg6 mi
8:54 PM75 °FThunderstorms. Partly cloudy.5 mph65%29.98 "Hg4 mi
7:54 PM79 °FPartly cloudy.6 mph70%29.95 "Hg6 mi
6:51 PM82 °FThunderstorms. Broken clouds.8 mph70%29.92 "Hg6 mi
5:50 PM86 °FScattered clouds.3 mph59%29.89 "Hg6 mi
4:50 PM88 °FScattered clouds.3 mph52%29.89 "Hg6 mi
3:50 PM88 °FScattered clouds.3 mph52%29.89 "Hg6 mi
2:50 PM88 °FPartly sunny.1 mph52%29.92 "Hg6 mi
1:50 PM90 °FScattered clouds.5 mph49%29.92 "Hg6 mi
12:50 PM88 °FScattered clouds.3 mph52%29.95 "Hg6 mi
11:50 AM88 °FPassing clouds.6 mph52%29.98 "Hg6 mi
10:50 AM84 °FPassing clouds.10 mph62%30.01 "Hg6 mi
9:50 AM81 °FPassing clouds.12 mph74%29.98 "Hg6 mi
8:50 AM79 °FPassing clouds.8 mph84%29.98 "Hg6 mi
7:50 AM73 °FPassing clouds.5 mph94%29.95 "Hg6 mi
6:50 AM72 °FPassing clouds.6 mph94%29.95 "Hg6 mi
Weather by CustomWeather, © 2014

See weather overviewHow to use our weather pages